Location: Dumpton Point
(51.3500°N, 1.4433°E)
Time: 22:03:58
(UTC+00:00)

Vanguard 1 - Pass Details

Date: 03 October 2022
Orbit: 650 x 3831 km, 34.2° (Epoch: 03 December)

Event Time Altitude Azimuth Distance (km) Brightness Sun altitude
Rises 13:38:14 0° 228° (SW) 7,419 15.7 29.4°
Reaches altitude 10° 13:44:42 10° 220° (SW) 5,948 15.7 28.8°
Maximum altitude 13:57:37 28° 170° (S) 3,438 13.7 27.6°
Drops below altitude 10° 14:05:54 10° 116° (ESE) 3,744 13.0 26.8°
Sets 14:08:52 0° 104° (ESE) 4,361 13.1 26.5°
